Weather History for KNEW - September, 2013

Change the Weather History Date:

Friday, September 6, 2013

  Actual Average Record
Temperature  
Mean Temperature 84 °F 82 °F  
Max Temperature 91 °F 90 °F 93 °F (1999)
Min Temperature 76 °F 74 °F 63 °F (1984)
Degree Days  
Heating Degree Days 0 0  
Month to date heating degree days 0 0  
Since 1 July heating degree days 0 0  
Cooling Degree Days 19 17  
Month to date cooling degree days 112 102  
Year to date cooling degree days 2248 2348  
Growing Degree Days 36 (Base 50)    
Moisture  
Dew Point 74 °F    
Average Humidity 75    
Maximum Humidity 94    
Minimum Humidity 56    
Precipitation  
Precipitation 1.26 in 0.18 in 2.74 in (1983)
Month to date precipitation 3.37 1.16  
Year to date precipitation 53.68 45.37  
Snow  
Snow 0.00 in - - ()
Month to date snowfall 0.0  
Since 1 July snowfall 0.0  
Since 1 September snowfall 0.0  
Snow Depth 0.00 in    
Sea Level Pressure  
Sea Level Pressure 30.03 in    
Wind  
Wind Speed 3 mph (East)    
Max Wind Speed 21 mph    
Max Gust Speed 26 mph    
Visibility 9 miles    
Events      
T = Trace of Precipitation, MM = Missing Value Source: NWS Daily Summary

Daily Weather History Graph

Daily Weather History Graph

Search for Another Location

Airport or City:

Trip Planner

Search our weather history database for the weather conditions in past years. The results will help you decide how hot, cold, wet, or windy it might be!

Date:

Astronomy

Sep. 06, 2013 Rise Set
Actual Time 6:39 AM CDT 7:16 PM CDT
Civil Twilight 6:15 AM CDT 7:40 PM CDT
Nautical Twilight 5:47 AM CDT 8:08 PM CDT
Astronomical Twilight 5:18 AM CDT 8:37 PM CDT
Moon 7:43 AM CDT (9/6) 7:51 PM CDT (9/6)
Length of Visible Light 13h 24m
Length of Day
12h 36m
New Moon, 2% of the Moon is Illuminated
Sep 6
New Moon
Sep 12
First Quarter
Sep 19
Full
Sep 26
Last Quarter
Oct 4
New

Hourly Weather History & Observations

Time (CDT) Temp. Heat Index Dew Point Humidity Pressure Visibility Wind Dir Wind Speed Gust Speed Precip Events Conditions
12:53 AM 84.0 °F 91.9 °F 75.0 °F 74% 30.05 in 9.0 mi Calm Calm - N/A   Clear
1:53 AM 82.0 °F 88.6 °F 75.0 °F 79% 30.04 in 10.0 mi Calm Calm - N/A   Clear
2:53 AM 82.0 °F 88.6 °F 75.0 °F 79% 30.03 in 8.0 mi Calm Calm - N/A   Partly Cloudy
3:53 AM 82.0 °F 88.6 °F 75.0 °F 79% 30.03 in 10.0 mi Calm Calm - N/A   Mostly Cloudy
4:05 AM 82.4 °F 89.5 °F 75.2 °F 79% 30.05 in 3.0 mi Calm Calm - N/A   Haze
4:53 AM 82.0 °F 91.0 °F 78.1 °F 88% 30.03 in 8.0 mi East 3.5 mph - N/A   Clear
5:53 AM 82.0 °F 91.0 °F 78.1 °F 88% 30.04 in 10.0 mi East 5.8 mph - N/A   Scattered Clouds
6:53 AM 82.9 °F 91.8 °F 77.0 °F 82% 30.06 in 10.0 mi East 8.1 mph - N/A   Clear
7:53 AM 84.0 °F 93.7 °F 77.0 °F 79% 30.07 in 10.0 mi ENE 9.2 mph - N/A   Partly Cloudy
8:53 AM 86.0 °F 96.0 °F 75.9 °F 72% 30.08 in 10.0 mi ENE 9.2 mph - N/A   Clear
9:53 AM 86.0 °F 96.9 °F 77.0 °F 74% 30.09 in 10.0 mi NE 9.2 mph - N/A   Scattered Clouds
10:53 AM 87.1 °F 96.3 °F 75.0 °F 67% 30.09 in 10.0 mi NE 12.7 mph - N/A   Scattered Clouds
11:53 AM 90.0 °F 93.6 °F 68.0 °F 48% 30.08 in 10.0 mi ENE 4.6 mph - N/A   Scattered Clouds
12:53 PM 89.1 °F 98.0 °F 73.9 °F 61% 30.06 in 8.0 mi NNE 8.1 mph - N/A   Partly Cloudy
1:53 PM 91.9 °F 97.4 °F 70.0 °F 48% 30.05 in 10.0 mi East 9.2 mph - N/A   Scattered Clouds
2:53 PM 91.9 °F 95.4 °F 66.9 °F 44% 30.02 in 10.0 mi SE 6.9 mph - N/A   Scattered Clouds
3:53 PM 91.9 °F 95.4 °F 66.9 °F 44% 29.99 in 10.0 mi East 6.9 mph - N/A   Clear
4:53 PM 90.0 °F 96.9 °F 72.0 °F 55% 29.99 in 10.0 mi East 9.2 mph - N/A   Clear
5:53 PM 91.0 °F 96.6 °F 70.0 °F 50% 29.99 in 10.0 mi East 5.8 mph - N/A   Clear
6:53 PM 86.0 °F 96.0 °F 75.9 °F 72% 29.99 in 10.0 mi ESE 6.9 mph - N/A   Overcast
7:53 PM 86.0 °F 92.2 °F 72.0 °F 63% 29.99 in 10.0 mi Calm Calm - N/A   Clear
8:53 PM 84.9 °F 90.7 °F 72.0 °F 65% 30.00 in 10.0 mi Calm Calm - N/A   Clear
9:53 PM 84.0 °F 90.2 °F 73.0 °F 69% 30.01 in 10.0 mi SE 4.6 mph - N/A   Clear
10:53 PM 84.0 °F 91.2 °F 73.9 °F 72% 30.01 in 10.0 mi Calm Calm - N/A   Clear
11:53 PM 84.0 °F 91.9 °F 75.0 °F 74% 30.00 in 10.0 mi Calm Calm - N/A   Clear